Time,TemperatureF,DewpointF,PressureIn,WindDirection,WindDirectionDegrees,WindSpeedMPH,WindSpeedGustMPH,Humidity,HourlyPrecipIn,Conditions,Clouds,dailyrainin,SolarRadiationWatts/m^2,SoftwareType,DateUTC
2013-05-20 00:03:00,50.0,47.0,-100.00,NNE,33,3.0,6.0,91,0.00,,,0.13,0.000000,,2013-05-20 10:03:00,
2013-05-20 00:12:00,50.0,47.0,-100.00,NNE,33,3.0,6.0,91,0.00,,,0.13,0.000000,,2013-05-20 10:12:00,
2013-05-20 00:22:00,50.0,47.0,-100.00,NNE,33,3.0,6.0,91,0.00,,,0.13,0.000000,,2013-05-20 10:22:00,
2013-05-20 00:32:00,50.0,47.0,-100.00,NNE,33,3.0,6.0,91,0.00,,,0.13,0.000000,,2013-05-20 10:32:00,
2013-05-20 00:52:00,49.0,47.0,-100.00,ENE,65,4.0,5.0,92,0.00,,,0.13,0.000000,,2013-05-20 10:52:00,
2013-05-20 01:02:00,49.0,47.0,-100.00,ENE,65,4.0,5.0,92,0.00,,,0.13,0.000000,,2013-05-20 11:02:00,
2013-05-20 01:12:00,49.0,47.0,-100.00,ENE,65,4.0,5.0,92,0.00,,,0.13,0.000000,,2013-05-20 11:12:00,
2013-05-20 01:21:00,49.0,47.0,-100.00,ENE,65,4.0,5.0,92,0.00,,,0.13,0.000000,,2013-05-20 11:21:00,
2013-05-20 01:32:00,49.0,47.0,-100.00,ENE,65,4.0,5.0,92,0.00,,,0.13,0.000000,,2013-05-20 11:32:00,
2013-05-20 01:52:00,49.0,45.0,-100.00,NE,52,5.0,7.0,86,0.00,,,0.13,0.000000,,2013-05-20 11:52:00,
2013-05-20 02:01:00,49.0,45.0,-100.00,NE,52,5.0,7.0,86,0.00,,,0.13,0.000000,,2013-05-20 12:01:00,
2013-05-20 02:11:00,49.0,45.0,-100.00,NE,52,5.0,7.0,86,0.00,,,0.13,0.000000,,2013-05-20 12:11:00,
2013-05-20 02:21:00,49.0,45.0,-100.00,NE,52,5.0,7.0,86,0.00,,,0.13,0.000000,,2013-05-20 12:21:00,
2013-05-20 02:31:00,49.0,45.0,-100.00,NE,52,5.0,7.0,86,0.00,,,0.13,0.000000,,2013-05-20 12:31:00,
2013-05-20 02:52:00,47.0,42.0,-100.00,NE,48,5.0,7.0,82,0.01,,,0.14,0.000000,,2013-05-20 12:52:00,
2013-05-20 03:01:00,47.0,42.0,-100.00,NE,48,5.0,7.0,82,0.01,,,0.14,0.000000,,2013-05-20 13:01:00,
2013-05-20 03:11:00,47.0,42.0,-100.00,NE,48,5.0,7.0,82,0.01,,,0.14,0.000000,,2013-05-20 13:11:00,
2013-05-20 03:22:00,47.0,42.0,-100.00,NE,48,5.0,7.0,82,0.01,,,0.14,0.000000,,2013-05-20 13:22:00,
2013-05-20 03:31:00,47.0,42.0,-100.00,NE,48,5.0,7.0,82,0.01,,,0.14,0.000000,,2013-05-20 13:31:00,
2013-05-20 03:52:00,47.0,41.0,-100.00,NE,46,4.0,8.0,79,0.00,,,0.14,0.000000,,2013-05-20 13:52:00,
2013-05-20 04:01:00,47.0,41.0,-100.00,NE,46,4.0,8.0,79,0.00,,,0.14,0.000000,,2013-05-20 14:01:00,
2013-05-20 04:11:00,47.0,41.0,-100.00,NE,46,4.0,8.0,79,0.00,,,0.14,0.000000,,2013-05-20 14:11:00,
2013-05-20 04:21:00,47.0,41.0,-100.00,NE,46,4.0,8.0,79,0.00,,,0.14,0.000000,,2013-05-20 14:21:00,
2013-05-20 04:31:00,47.0,41.0,-100.00,NE,46,4.0,8.0,79,0.00,,,0.14,0.000000,,2013-05-20 14:31:00,
2013-05-20 04:33:00,47.0,39.0,-100.00,NE,40,5.0,7.0,75,0.00,,,0.14,0.000000,,2013-05-20 14:33:00,
2013-05-20 04:52:00,47.0,39.0,-100.00,NE,40,5.0,7.0,75,0.00,,,0.14,0.000000,,2013-05-20 14:52:00,
2013-05-20 05:01:00,47.0,39.0,-100.00,NE,40,5.0,7.0,75,0.00,,,0.14,0.000000,,2013-05-20 15:01:00,
2013-05-20 05:11:00,47.0,39.0,-100.00,NE,40,5.0,7.0,75,0.00,,,0.14,0.000000,,2013-05-20 15:11:00,
2013-05-20 05:21:00,47.0,39.0,-100.00,NE,40,5.0,7.0,75,0.00,,,0.14,0.000000,,2013-05-20 15:21:00,
2013-05-20 05:53:00,48.0,39.0,-100.00,North,4,5.0,8.0,72,0.00,,,0.14,0.000000,,2013-05-20 15:53:00,
2013-05-20 06:03:00,48.0,39.0,-100.00,North,4,5.0,8.0,72,0.00,,,0.14,0.000000,,2013-05-20 16:03:00,
2013-05-20 06:12:00,48.0,39.0,-100.00,North,4,5.0,8.0,72,0.00,,,0.14,0.000000,,2013-05-20 16:12:00,
2013-05-20 06:22:00,48.0,39.0,-100.00,North,4,5.0,8.0,72,0.00,,,0.14,0.000000,,2013-05-20 16:22:00,
2013-05-20 06:32:00,48.0,39.0,-100.00,North,4,5.0,8.0,72,0.00,,,0.14,0.000000,,2013-05-20 16:32:00,
2013-05-20 06:53:00,51.0,44.0,-100.00,North,11,5.0,9.0,77,0.00,,,0.14,0.000000,,2013-05-20 16:53:00,
2013-05-20 07:02:00,51.0,44.0,-100.00,North,11,5.0,9.0,77,0.00,,,0.14,0.000000,,2013-05-20 17:02:00,
2013-05-20 07:12:00,51.0,44.0,-100.00,North,11,5.0,9.0,77,0.00,,,0.14,0.000000,,2013-05-20 17:12:00,
2013-05-20 07:22:00,51.0,44.0,-100.00,North,11,5.0,9.0,77,0.00,,,0.14,0.000000,,2013-05-20 17:22:00,
2013-05-20 07:32:00,51.0,44.0,-100.00,North,11,5.0,9.0,77,0.00,,,0.14,0.000000,,2013-05-20 17:32:00,
2013-05-20 07:53:00,59.0,49.0,-100.00,North,359,4.0,8.0,70,0.00,,,0.14,35.000000,,2013-05-20 17:53:00,
2013-05-20 08:02:00,59.0,49.0,-100.00,North,359,4.0,8.0,70,0.00,,,0.14,35.000000,,2013-05-20 18:02:00,
2013-05-20 08:12:00,59.0,49.0,-100.00,North,359,4.0,8.0,70,0.00,,,0.14,35.000000,,2013-05-20 18:12:00,
2013-05-20 08:23:00,59.0,49.0,-100.00,North,359,4.0,8.0,70,0.00,,,0.14,35.000000,,2013-05-20 18:23:00,
2013-05-20 08:32:00,59.0,49.0,-100.00,North,359,4.0,8.0,70,0.00,,,0.14,35.000000,,2013-05-20 18:32:00,
2013-05-20 08:55:00,63.0,51.0,-100.00,WNW,303,4.0,8.0,66,0.00,,,0.14,363.000000,,2013-05-20 18:55:00,
2013-05-20 09:04:00,63.0,51.0,-100.00,WNW,303,4.0,8.0,66,0.00,,,0.14,363.000000,,2013-05-20 19:04:00,
2013-05-20 09:11:00,63.0,51.0,-100.00,WNW,303,4.0,8.0,66,0.00,,,0.14,363.000000,,2013-05-20 19:11:00,
2013-05-20 09:21:00,63.0,51.0,-100.00,WNW,303,4.0,8.0,66,0.00,,,0.14,363.000000,,2013-05-20 19:21:00,
2013-05-20 09:32:00,63.0,51.0,-100.00,WNW,303,4.0,8.0,66,0.00,,,0.14,363.000000,,2013-05-20 19:32:00,
2013-05-20 09:52:00,62.0,54.0,-100.00,West,270,3.0,10.0,74,0.00,,,0.14,661.000000,,2013-05-20 19:52:00,
2013-05-20 10:01:00,62.0,54.0,-100.00,West,270,3.0,10.0,74,0.00,,,0.14,661.000000,,2013-05-20 20:01:00,
2013-05-20 10:11:00,62.0,54.0,-100.00,West,270,3.0,10.0,74,0.00,,,0.14,661.000000,,2013-05-20 20:11:00,
2013-05-20 10:21:00,62.0,54.0,-100.00,West,270,3.0,10.0,74,0.00,,,0.14,661.000000,,2013-05-20 20:21:00,
2013-05-20 10:32:00,62.0,54.0,-100.00,West,270,3.0,10.0,74,0.00,,,0.14,661.000000,,2013-05-20 20:32:00,
2013-05-20 10:52:00,66.0,55.0,-100.00,WSW,255,3.0,9.0,68,0.00,,,0.14,703.000000,,2013-05-20 20:52:00,
2013-05-20 11:01:00,66.0,55.0,-100.00,WSW,255,3.0,9.0,68,0.00,,,0.14,703.000000,,2013-05-20 21:01:00,
2013-05-20 11:11:00,66.0,55.0,-100.00,WSW,255,3.0,9.0,68,0.00,,,0.14,703.000000,,2013-05-20 21:11:00,
2013-05-20 11:21:00,66.0,55.0,-100.00,WSW,255,3.0,9.0,68,0.00,,,0.14,703.000000,,2013-05-20 21:21:00,
2013-05-20 11:32:00,66.0,55.0,-100.00,WSW,255,3.0,9.0,68,0.00,,,0.14,703.000000,,2013-05-20 21:32:00,
2013-05-20 11:33:00,64.0,54.0,-100.00,SW,233,5.0,12.0,69,0.00,,,0.14,830.000000,,2013-05-20 21:33:00,
2013-05-20 11:53:00,64.0,54.0,-100.00,SW,233,5.0,12.0,69,0.00,,,0.14,830.000000,,2013-05-20 21:53:00,
2013-05-20 12:02:00,64.0,54.0,-100.00,SW,233,5.0,12.0,69,0.00,,,0.14,830.000000,,2013-05-20 22:02:00,
2013-05-20 12:12:00,64.0,54.0,-100.00,SW,233,5.0,12.0,69,0.00,,,0.14,830.000000,,2013-05-20 22:12:00,
2013-05-20 12:22:00,64.0,54.0,-100.00,SW,233,5.0,12.0,69,0.00,,,0.14,830.000000,,2013-05-20 22:22:00,
2013-05-20 12:52:00,63.0,50.0,-100.00,WSW,238,4.0,12.0,63,0.00,,,0.14,774.000000,,2013-05-20 22:52:00,
2013-05-20 13:02:00,63.0,50.0,-100.00,WSW,238,4.0,12.0,63,0.00,,,0.14,774.000000,,2013-05-20 23:02:00,
2013-05-20 13:12:00,63.0,50.0,-100.00,WSW,238,4.0,12.0,63,0.00,,,0.14,774.000000,,2013-05-20 23:12:00,
2013-05-20 13:21:00,63.0,50.0,-100.00,WSW,238,4.0,12.0,63,0.00,,,0.14,774.000000,,2013-05-20 23:21:00,
2013-05-20 13:32:00,63.0,50.0,-100.00,WSW,238,4.0,12.0,63,0.00,,,0.14,774.000000,,2013-05-20 23:32:00,
2013-05-20 13:53:00,59.0,54.0,-100.00,WSW,256,4.0,13.0,83,0.00,,,0.11,666.000000,,2013-05-20 23:53:00,
2013-05-20 14:01:00,59.0,54.0,-100.00,WSW,256,4.0,13.0,83,0.00,,,0.11,666.000000,,2013-05-21 00:01:00,
2013-05-20 14:11:00,59.0,54.0,-100.00,WSW,256,4.0,13.0,83,0.00,,,0.11,666.000000,,2013-05-21 00:11:00,
2013-05-20 14:21:00,59.0,54.0,-100.00,WSW,256,4.0,13.0,83,0.00,,,0.11,666.000000,,2013-05-21 00:21:00,
2013-05-20 14:31:00,59.0,54.0,-100.00,WSW,256,4.0,13.0,83,0.00,,,0.11,666.000000,,2013-05-21 00:31:00,
2013-05-20 14:52:00,60.0,55.0,-100.00,West,269,6.0,9.0,83,0.00,,,0.11,458.000000,,2013-05-21 00:52:00,
2013-05-20 15:01:00,60.0,55.0,-100.00,West,269,6.0,9.0,83,0.00,,,0.11,458.000000,,2013-05-21 01:01:00,
2013-05-20 15:11:00,60.0,55.0,-100.00,West,269,6.0,9.0,83,0.00,,,0.11,458.000000,,2013-05-21 01:11:00,
2013-05-20 15:21:00,60.0,55.0,-100.00,West,269,6.0,9.0,83,0.00,,,0.11,458.000000,,2013-05-21 01:21:00,
2013-05-20 15:32:00,60.0,55.0,-100.00,West,269,6.0,9.0,83,0.00,,,0.11,458.000000,,2013-05-21 01:32:00,
2013-05-20 15:53:00,63.0,55.0,-100.00,WSW,256,5.0,11.0,74,0.00,,,0.11,647.000000,,2013-05-21 01:53:00,
2013-05-20 16:01:00,63.0,55.0,-100.00,WSW,256,5.0,11.0,74,0.00,,,0.11,647.000000,,2013-05-21 02:01:00,
2013-05-20 16:11:00,63.0,55.0,-100.00,WSW,256,5.0,11.0,74,0.00,,,0.11,647.000000,,2013-05-21 02:11:00,
2013-05-20 16:21:00,63.0,55.0,-100.00,WSW,256,5.0,11.0,74,0.00,,,0.11,647.000000,,2013-05-21 02:21:00,
2013-05-20 16:32:00,63.0,55.0,-100.00,WSW,256,5.0,11.0,74,0.00,,,0.11,647.000000,,2013-05-21 02:32:00,
2013-05-20 16:33:00,64.0,54.0,-100.00,WSW,251,5.0,10.0,70,0.00,,,0.04,581.000000,,2013-05-21 02:33:00,
2013-05-20 16:52:00,64.0,54.0,-100.00,WSW,251,5.0,10.0,70,0.00,,,0.04,581.000000,,2013-05-21 02:52:00,
2013-05-20 17:02:00,64.0,54.0,-100.00,WSW,251,5.0,10.0,70,0.00,,,0.04,581.000000,,2013-05-21 03:02:00,
2013-05-20 17:11:00,64.0,54.0,-100.00,WSW,251,5.0,10.0,70,0.00,,,0.04,581.000000,,2013-05-21 03:11:00,
2013-05-20 17:21:00,64.0,54.0,-100.00,WSW,251,5.0,10.0,70,0.00,,,0.04,581.000000,,2013-05-21 03:21:00,
2013-05-20 17:33:00,60.0,53.0,-100.00,West,273,5.0,10.0,79,0.00,,,0.03,401.000000,,2013-05-21 03:33:00,
2013-05-20 17:53:00,60.0,53.0,-100.00,West,273,5.0,10.0,79,0.00,,,0.03,401.000000,,2013-05-21 03:53:00,
2013-05-20 18:03:00,60.0,53.0,-100.00,West,273,5.0,10.0,79,0.00,,,0.03,401.000000,,2013-05-21 04:03:00,
2013-05-20 18:12:00,60.0,53.0,-100.00,West,273,5.0,10.0,79,0.00,,,0.03,401.000000,,2013-05-21 04:12:00,
2013-05-20 18:23:00,60.0,53.0,-100.00,West,273,5.0,10.0,79,0.00,,,0.03,401.000000,,2013-05-21 04:23:00,
2013-05-20 18:53:00,59.0,50.0,-100.00,WNW,295,0.0,9.0,71,0.00,,,0.02,220.000000,,2013-05-21 04:53:00,
2013-05-20 19:02:00,59.0,50.0,-100.00,WNW,295,0.0,9.0,71,0.00,,,0.02,220.000000,,2013-05-21 05:02:00,
2013-05-20 19:12:00,59.0,50.0,-100.00,WNW,295,0.0,9.0,71,0.00,,,0.02,220.000000,,2013-05-21 05:12:00,
2013-05-20 19:21:00,59.0,50.0,-100.00,WNW,295,0.0,9.0,71,0.00,,,0.02,220.000000,,2013-05-21 05:21:00,
2013-05-20 19:31:00,59.0,50.0,-100.00,WNW,295,0.0,9.0,71,0.00,,,0.02,220.000000,,2013-05-21 05:31:00,
2013-05-20 19:52:00,51.0,46.0,-100.00,SE,124,2.0,4.0,83,0.00,,,0.01,94.000000,,2013-05-21 05:52:00,
2013-05-20 20:02:00,51.0,46.0,-100.00,SE,124,2.0,4.0,83,0.00,,,0.01,94.000000,,2013-05-21 06:02:00,
2013-05-20 20:11:00,51.0,46.0,-100.00,SE,124,2.0,4.0,83,0.00,,,0.01,94.000000,,2013-05-21 06:11:00,
2013-05-20 20:21:00,51.0,46.0,-100.00,SE,124,2.0,4.0,83,0.00,,,0.01,94.000000,,2013-05-21 06:21:00,
2013-05-20 20:32:00,51.0,46.0,-100.00,SE,124,2.0,4.0,83,0.00,,,0.01,94.000000,,2013-05-21 06:32:00,
2013-05-20 20:52:00,52.0,44.0,-100.00,ESE,117,2.0,6.0,75,0.00,,,0.01,2.000000,,2013-05-21 06:52:00,
2013-05-20 21:01:00,52.0,44.0,-100.00,ESE,117,2.0,6.0,75,0.00,,,0.01,2.000000,,2013-05-21 07:01:00,
2013-05-20 21:11:00,52.0,44.0,-100.00,ESE,117,2.0,6.0,75,0.00,,,0.01,2.000000,,2013-05-21 07:11:00,
2013-05-20 21:21:00,52.0,44.0,-100.00,ESE,117,2.0,6.0,75,0.00,,,0.01,2.000000,,2013-05-21 07:21:00,
2013-05-20 21:31:00,52.0,44.0,-100.00,ESE,117,2.0,6.0,75,0.00,,,0.01,2.000000,,2013-05-21 07:31:00,
2013-05-20 21:52:00,49.0,40.0,-100.00,East,93,3.0,5.0,70,0.00,,,0.01,0.000000,,2013-05-21 07:52:00,
2013-05-20 22:01:00,49.0,40.0,-100.00,East,93,3.0,5.0,70,0.00,,,0.01,0.000000,,2013-05-21 08:01:00,
2013-05-20 22:11:00,49.0,40.0,-100.00,East,93,3.0,5.0,70,0.00,,,0.01,0.000000,,2013-05-21 08:11:00,
2013-05-20 22:21:00,49.0,40.0,-100.00,East,93,3.0,5.0,70,0.00,,,0.01,0.000000,,2013-05-21 08:21:00,
2013-05-20 22:31:00,49.0,40.0,-100.00,East,93,3.0,5.0,70,0.00,,,0.01,0.000000,,2013-05-21 08:31:00,
2013-05-20 22:52:00,49.0,37.0,-100.00,ESE,108,4.0,5.0,64,0.00,,,0.01,0.000000,,2013-05-21 08:52:00,
2013-05-20 23:01:00,49.0,37.0,-100.00,ESE,108,4.0,5.0,64,0.00,,,0.01,0.000000,,2013-05-21 09:01:00,
2013-05-20 23:11:00,49.0,37.0,-100.00,ESE,108,4.0,5.0,64,0.00,,,0.01,0.000000,,2013-05-21 09:11:00,
2013-05-20 23:21:00,49.0,37.0,-100.00,ESE,108,4.0,5.0,64,0.00,,,0.01,0.000000,,2013-05-21 09:21:00,
2013-05-20 23:32:00,49.0,37.0,-100.00,ESE,108,4.0,5.0,64,0.00,,,0.01,0.000000,,2013-05-21 09:32:00,
2013-05-20 23:53:00,50.0,42.0,-100.00,East,93,4.0,5.0,75,0.00,,,0.01,0.000000,,2013-05-21 09:53:00,